Flag for U.S.A. Weather past 2 weeks in Waterbury, Connecticut, U.S.A.

Now
63 °F

Clear.


Feels Like: 63 °F
Forecast: 58 / 83 °F
Wind: 6 mph from Northeast

Location: Oxford

Current Time: May 29, 2015 at 12:31:13 AM

Latest Report: May 28, 2015 at 11:35 PM


Visibility: 10 mi

Pressure: 30.27 "Hg

Humidity: 68%

Dew point: 52 °F

Location of WaterburyLocation

Historic Weather in Waterbury — Graph

°F

Waterbury temperature yesterday

Maximum temperature yesterday: 77 °F (at 1:50 PM)
Minimum temperature yesterday: 64 °F (at 12:15 AM)
Average temperature yesterday: 67 °F

Past Weeks' High & Low Weather Summary

 TemperatureHumidityPressure
High84 °F (May 26, 2:50 PM)100% (May 19, 6:50 AM)30.41 "Hg (May 19, 6:50 AM)
Low34 °F (May 19, 6:50 AM)21% (May 14, 2:55 PM)29.78 "Hg (May 19, 7:50 PM)
Average59 °F65%30.15 "Hg
* Reported May 13 10:15 PM — May 28 10:55 PM, Waterbury, Weather by CustomWeather, © 2015

Note: Actual official high and low records may vary slightly from our data, if they occured in-between our weather recording intervals... More about our weather records

Advertising

Waterbury weather history for previous 24 hours

 ConditionsComfort  
Time TempWeatherWind HumidityBarometerVisibility
10:55 PM
Thu, May 28
64 °FClear.9 mph64%30.26 "Hg10 mi
10:35 PM64 °FClear.10 mph68%30.26 "Hg10 mi
10:15 PM64 °FClear.10 mph68%30.25 "Hg10 mi
9:55 PM66 °FClear.8 mph64%30.25 "Hg10 mi
9:35 PM66 °FClear.8 mph68%30.24 "Hg10 mi
9:15 PM70 °FSunny.12 mph60%30.22 "Hg10 mi
8:55 PM70 °FSunny.12 mph64%30.21 "Hg10 mi
8:05 PM72 °FPassing clouds.7 mph78%30.19 "Hg10 mi
6:50 PM72 °FSunny.5 mph83%30.17 "Hg10 mi
5:52 PM72 °FScattered clouds.5 mph78%30.14 "Hg10 mi
4:48 PM73 °FThunderstorms. Broken clouds.5 mph78%30.14 "Hg8 mi
3:48 PM77 °FThunderstorms. Scattered clouds.7 mph69%30.15 "Hg7 mi
2:50 PM77 °FScattered clouds.9 mph69%30.15 "Hg7 mi
1:50 PM77 °FScattered clouds.8 mph74%30.17 "Hg7 mi
12:50 PM70 °FPartly sunny.6 mph78%30.18 "Hg5 mi
11:50 AM70 °FFog.8 mph78%30.18 "Hg2 mi
10:50 AM70 °FFog.5 mph78%30.19 "Hg1 mi
9:50 AM68 °FLow clouds.7 mph83%30.19 "Hg1 mi
8:50 AM66 °FLow clouds.5 mph88%30.19 "Hg1 mi
7:50 AM66 °FLow clouds.5 mph83%30.19 "Hg1 mi
5:50 AM64 °FDense fog.5 mph88%30.17 "Hg0 mi
5:35 AM64 °FLow clouds.6 mph88%30.17 "Hg0 mi
5:15 AM66 °FLow clouds.6 mph83%30.16 "Hg0 mi
4:55 AM66 °FLow clouds.6 mph83%30.16 "Hg1 mi
4:35 AM64 °FLow clouds.5 mph88%30.15 "Hg1 mi
4:15 AM64 °FLow clouds.3 mph83%30.16 "Hg2 mi
3:55 AM64 °FLow clouds.No wind88%30.16 "Hg3 mi
3:35 AM64 °FLow clouds.3 mph83%30.16 "Hg3 mi
3:15 AM64 °FLow clouds.5 mph83%30.16 "Hg3 mi
2:55 AM64 °FLow clouds.5 mph83%30.16 "Hg4 mi
2:35 AM64 °FLow clouds.7 mph83%30.17 "Hg2 mi
2:15 AM64 °FLow clouds.5 mph83%30.16 "Hg3 mi
1:55 AM64 °FLow clouds.3 mph83%30.16 "Hg3 mi
1:35 AM64 °FLow clouds.No wind83%30.16 "Hg3 mi
1:15 AM64 °FLow clouds.6 mph83%30.16 "Hg4 mi
12:55 AM64 °FLow clouds.5 mph83%30.16 "Hg4 mi
12:35 AM64 °FLow clouds.3 mph83%30.16 "Hg4 mi
12:15 AM64 °FLow clouds.3 mph83%30.16 "Hg4 mi
Weather by CustomWeather, © 2015

See weather overviewHow to use our weather pages